This is the latest recevied weather packets stored in our database for station/object KC1BRV. If no packets are shown the sender has not sent any weather packets the latest 10 day(s).
| Time | Temp. | Humidity | Pressure | Rain* | Wind** | Luminosity | Snow |
|---|---|---|---|---|---|---|---|
| 1777845303 | 11.67° C | 38% | 1009.2 hPa | 0 mm | - | 83 W/m² | - |
| 1777845000 | 11.67° C | 37% | 1009.1 hPa | 0 mm | - | 92 W/m² | - |
| 1777844699 | 11.67° C | 37% | 1009 hPa | 0 mm | - | 88 W/m² | - |
| 1777844395 | 11.67° C | 39% | 1008.8 hPa | 0 mm | - | 95 W/m² | - |
| 1777844094 | 11.67° C | 38% | 1008.9 hPa | 0 mm | - | 100 W/m² | - |
| 1777843789 | 11.67° C | 38% | 1008.7 hPa | 0 mm | - | 103 W/m² | - |
| 1777843486 | 11.67° C | 39% | 1008.7 hPa | 0 mm | - | 97 W/m² | - |
| 1777843184 | 11.67° C | 40% | 1008.8 hPa | 0 mm | - | 104 W/m² | - |
| 1777842881 | 11.67° C | 39% | 1008.6 hPa | 0 mm | - | 107 W/m² | - |
| 1777842576 | 11.67° C | 38% | 1008.5 hPa | 0 mm | - | 100 W/m² | - |
| 1777842273 | 11.67° C | 37% | 1008.2 hPa | 0 mm | - | 104 W/m² | - |
| 1777841968 | 11.67° C | 38% | 1008.2 hPa | 0 mm | - | 151 W/m² | - |
| 1777841665 | 11.67° C | 39% | 1008.5 hPa | 0 mm | - | 121 W/m² | - |
| 1777841361 | 11.67° C | 37% | 1007.9 hPa | 0 mm | - | 132 W/m² | - |
| 1777841059 | 11.67° C | 37% | 1008 hPa | 0 mm | - | 135 W/m² | - |
| 1777840756 | 12.22° C | 37% | 1007.9 hPa | 0 mm | - | 126 W/m² | - |
| 1777840453 | 12.22° C | 38% | 1008.1 hPa | 0 mm | - | 146 W/m² | - |
| 1777840150 | 12.22° C | 38% | 1007.9 hPa | 0 mm | - | 167 W/m² | - |
| 1777839848 | 12.22° C | 38% | 1007.8 hPa | 0 mm | - | 126 W/m² | - |
| 1777839546 | 12.22° C | 38% | 1007.8 hPa | 0 mm | - | 183 W/m² | - |
| 1777839243 | 12.22° C | 37% | 1007.8 hPa | 0 mm | - | 209 W/m² | - |
| 1777838941 | 12.22° C | 38% | 1007.8 hPa | 0 mm | - | 124 W/m² | - |
| 1777838636 | 12.22° C | 41% | 1007.9 hPa | 0 mm | - | 214 W/m² | - |
| 1777838333 | 12.22° C | 39% | 1007.9 hPa | 0 mm | - | 241 W/m² | - |
| 1777838030 | 12.22° C | 40% | 1007.6 hPa | 0 mm | - | 205 W/m² | - |
* Rain latest hour (hover to see other rain measurements)
** Current wind speed in m/s (hover to see current wind gust speed)